This demonstration page uses our WeatherBlox Daily Observations layout. Learn more.

Left ArrowRight Arrow

Hourly Observations for March 17, 2018

Temp ( °F °C ) Dew Point ( °F °C ) Humidity (%) Winds ( mph kmh ) Pressure ( in mb ) Visibility ( mi km ) Precip ( " mm )
12:54 am 00:54 Cloudy with Mist and Fog 34 1.1 32 0 92 92 N 12 19 29.87 1011 6 10 0.00 0.00
1:54 am 01:54 Cloudy 34 1.1 32 0 92 92 NNW 9 15 29.88 1012 7 11 0.00 0.00
2:54 am 02:54 Cloudy 34 1.1 32 0 92 92 NNW 9 15 29.91 1013 7 11 0.00 0.00
3:54 am 03:54 Cloudy 34 1.1 32 0 92 92 NNW 9 15 29.91 1013 7 11 0.00 0.00
4:54 am 04:54 Cloudy 34 1.1 32 0 92 92 NW 8 13 29.92 1013 7 11 0.00 0.00
5:54 am 05:54 Cloudy 34 1.1 32 0 92 92 NNW 12 19 29.94 1014 7 11 0.00 0.00
6:54 am 06:54 Cloudy 34 1.1 32 0 92 92 NNW 13 20 29.97 1015 7 11 0.00 0.00
7:42 am 07:42 Cloudy 35 1.7 32 0 89 89 NNW 8 13 30.03 1017 8 13 0.00 0.00
7:54 am 07:54 Cloudy 35 1.7 32 0 89 89 NNW 8 13 30.01 1016 8 13 0.00 0.00
8:54 am 08:54 Cloudy 35 1.7 32 0 89 89 NNW 12 19 30.03 1017 7 11 0.00 0.00
9:54 am 09:54 Cloudy 36 2.2 32 0 86 86 N 12 19 30.04 1017 7 11 0.00 0.00
10:31 am 10:31 Cloudy with Mist and Fog 36 2.2 33 0.6 89 89 N 15 24 30.09 1019 6 10 0.00 0.00
10:42 am 10:42 Cloudy with Mist and Fog 36 2.2 33 0.6 89 89 N 14 22 30.09 1019 6 10 0.00 0.00
10:54 am 10:54 Cloudy with Mist and Fog 36 2.2 33 0.6 89 89 N 14 22 30.05 1018 5 8 0.00 0.00
11:28 am 11:28 Cloudy with Mist and Fog 36 2.2 33 0.6 89 89 N 12 19 30.09 1019 5 8 0.00 0.00
11:54 am 11:54 Cloudy with Mist and Fog 37 2.8 33 0.6 86 86 N 10 17 30.06 1018 6 10 0.00 0.00
12:54 pm 12:54 Cloudy 38 3.3 33 0.6 83 83 N 7 11 30.07 1018 7 11 0.00 0.00
1:54 pm 13:54 Cloudy 39 3.9 33 0.6 79 79 N 9 15 30.07 1018 7 11 0.00 0.00
2:54 pm 14:54 Cloudy 39 3.9 33 0.6 79 79 N 7 11 30.06 1018 8 13 0.00 0.00
3:54 pm 15:54 Cloudy 40 4.4 33 0.6 77 77 Calm 30.06 1018 8 13 0.00 0.00
4:42 pm 16:42 Cloudy 40 4.4 33 0.6 77 77 NNE 6 9 30.06 1018 8 13 0.00 0.00
4:54 pm 16:54 Cloudy 40 4.4 33 0.6 77 77 Calm 30.05 1018 8 13 0.00 0.00
5:54 pm 17:54 Cloudy 40 4.4 33 0.6 77 77 NNE 3 6 30.06 1018 7 11 0.00 0.00
6:54 pm 18:54 Cloudy 39 3.9 33 0.6 79 79 NE 3 6 30.06 1018 7 11 0.00 0.00
7:54 pm 19:54 Cloudy 39 3.9 33 0.6 79 79 NE 5 7 30.06 1018 8 13 0.00 0.00
8:54 pm 20:54 Cloudy 38 3.3 33 0.6 83 83 NE 3 6 30.06 1018 8 13 0.00 0.00
9:43 pm 21:43 Cloudy 38 3.3 33 0.6 83 83 NE 5 7 30.09 1019 7 11 0.00 0.00
9:54 pm 21:54 Cloudy 38 3.3 33 0.6 83 83 ENE 5 7 30.06 1018 7 11 0.00 0.00
10:26 pm 22:26 Cloudy 38 3.3 33 0.6 83 83 NE 3 6 30.12 1020 7 11 0.00 0.00
10:54 pm 22:54 Cloudy 38 3.3 33 0.6 83 83 Calm 30.08 1019 8 13 0.00 0.00
11:23 pm 23:23 Cloudy 38 3.3 33 0.6 83 83 Calm 30.12 1020 8 13 0.00 0.00
11:54 pm 23:54 Cloudy 38 3.3 33 0.6 83 83 Calm 30.08 1019 7 11 0.00 0.00

Powered by AerisWeather